Location: Doverdale
(52.2833°N, 2.2000°W)
Time: 04:48:03
(UTC+00:00)

Okean O Rocket - Pass Details

Date: 29 October 2020
Orbit: 623 x 645 km, 98.2° (Epoch: 25 November)

Event Time Altitude Azimuth Distance (km) Brightness Sun altitude
Rises 17:23:19 0° 165° (SSE) 2,907 5.0 -6.5°
Reaches altitude 10° 17:25:30 10° 166° (SSE) 2,001 4.2 -6.8°
Maximum altitude 17:29:52 84° 255° (WSW) 637 1.7 -7.5°
Drops below altitude 10° 17:34:15 10° 344° (NNW) 2,009 4.2 -8.1°
Sets 17:36:27 0° 345° (NNW) 2,919 5.1 -8.4°
